Regional Weather Roundup
Issued by NWS Cleveland, OH

Home | Current Version | Previous Version | Text Only | Print | Product List | Glossary Off
Versions: 1 2 3 4 5 6 7 8 9 10 11 12 13 14 15 16 17 18 19 20 21 22 23 24 25 26 27 28 29 30 31 32 33 34 35 36 37 38 39 40 41 42 43 44 45 46 47 48 49 50

000
ASUS41 KCLE 260202
RWRCLE
OHIO REGIONAL WEATHER ROUNDUP
NATIONAL WEATHER SERVICE CLEVELAND, OH
900 PM EST TUE NOV 25 2014

NOTE: "FAIR" INDICATES FEW OR NO CLOUDS BELOW 12,000 FEET WITH NO
SIGNIFICANT WEATHER AND/OR OBSTRUCTIONS TO VISIBILITY.

OHZ001>008-015>018-024>027-034-035-043-044-260300-
   NORTHWEST OHIO

CITY           SKY/WX    TMP DP  RH WIND       PRES   REMARKS
DEFIANCE       NOT AVBL
FINDLAY        CLOUDY    30  21  69 SW5       30.20R WCI  25
TOLEDO EXPRESS CLOUDY    28  20  71 SW5       30.21R WCI  23
TOLEDO EXEC    CLOUDY    30  20  66 W8        30.22R WCI  22
LIMA           CLOUDY    29  22  75 W7        30.19S WCI  22
$$

OHZ009>014-019>023-028>033-038-089-260300-
   NORTHEAST OHIO

CITY           SKY/WX    TMP DP  RH WIND       PRES   REMARKS
CLE-HOPKINS    CLOUDY    31  23  72 W9        30.22S WCI  23
CLE-LAKEFRONT  CLOUDY    34  24  67 W10       30.20R WCI  26
CUY CO. ARPT   CLOUDY    34  27  75 W14       30.20R WCI  24
LORAIN-ELYRIA  CLOUDY    30  23  75 W7        30.21R WCI  23
ASHTABULA      CLOUDY    33  24  69 W10       30.19R WCI  25
AKRON-CANTON   CLOUDY    34  27  75 NW7       30.17R WCI  28
WOOSTER        CLOUDY    31  26  82 NW10      30.18S WCI  22
MANSFIELD      CLOUDY    29  24  82 W5        30.16F WCI  24
YOUNGSTOWN     CLOUDY    34  27  75 NW8       30.16R WCI  27
$$

OHZ042-051>053-060>062-070>072-077>081-260300-
  SOUTHWEST OHIO

CITY           SKY/WX    TMP DP  RH WIND       PRES   REMARKS
CINC-COVINGTON CLOUDY    34  26  72 N9        30.17R WCI  27
CINC-LUNKEN    MOCLDY    35  27  72 NE6       30.20R
HAMILTON       PTCLDY    30  26  85 CALM      30.20R
DAYTON         MOCLDY    29  25  85 N6        30.18R WCI  23
WRIGHT-PAT AFB PTCLDY    30  26  82 N3        30.18R
DAYTON GENERAL PTCLDY    31  26  82 NE5       30.17R WCI  26
WILMINGTON     MOCLDY    31  27  85 N8        30.17R WCI  23
$$

OHZ036-037-039>041-045>050-054>059-063>069-073>076-082>088-260300-
  CENTRAL AND SOUTHEAST OHIO

CITY           SKY/WX    TMP DP  RH WIND       PRES   REMARKS
COLUMBUS       MOCLDY    32  26  78 N7        30.17R WCI  26
OSU AIRPORT    PTCLDY    30  25  81 N9        30.17R WCI  22
BOLTON FIELD   NOT AVBL
RICKENBACK AFB NOT AVBL
NEWARK         PTCLDY    33  27  78 N6        30.17R WCI  28
MARION         CLOUDY    29  23  78 NW8       30.19S WCI  21
LANCASTER      MOCLDY    30  25  81 N5        30.17R WCI  25
ZANESVILLE     PTCLDY    30  24  78 CALM      30.16S
NEW PHILLY     MOCLDY    30  24  78 CALM      30.18R
$$


USA.gov is the U.S. government's official web portal to all federal, state and local government web resources and services.